STARLINK-11308, 61246

Orbit data source: Space-Track

STARLINK-11308, 61246 is a payload satellite owned by SpaceX/Seattle (US) in LEO that was launched on Wed, 25 Sep 2024 UTC via an FALCON 9 launch vehicle from the Air Force Western Test Range (AFWTR). Payload-class satellites include a variety of spacecraft equipped with specific instruments for various scientific and technological missions. These include communications satellites like Starlink; space stations such as the ISS; scientific satellites like the Hubble; Earth observation satellites from companies like Planet Labs, Umbra, and HawkEye 360; GPS; miniature CubeSats for education and research; and military/defense satellites.

Loading next visibility...
Identifier
61246, 2024-175D
Orbit
LEO
Country
Flag of USUS
Related business
Manufacturer
SpaceX/Seattle
Mission
Operational Commercial Communications
Bus & Motor
STARLINK V2MD, Unknown motor
Mass
960 kg wet, ~910 kg dry
Launch date (UTC)
2024-09-25 (1 year ago)
Launch vehicle
FALCON 9
Launch site
Air Force Western Test Range (AFWTR)
Object type
Payload
Rocket body
Debris
Shape & HBR
Box + 2 Pan, 18.1 m
Radar Cross Section
36.964 m², Large (>1 m²)

Expand to show TLE details & history
Last TLE update: 1 day ago

TLE from 1 day ago
0 STARLINK-11308
1 61246U 24175D   25315.17528038  .00000925  00000-0  12499-4 0  9993
2 61246  53.1597 280.4104 0001097  98.3022 261.8120 15.69700222 64757
Epoch: 2025-11-11T04:12Z
TLE epoch observation values (Epoch: 2025-11-11T04:12:24.224Z)
Latitude
-0.00007°
Longitude
166.74381°
Altitude
360.775 km
Speed
7.694 km/s
True Right ascension
18h 41m 38s
True Declination
0° 00' 00"
Sunlit
Object was in daylight at epoch
Visualization orbit readout
Latitude
Unknown
Longitude
Unknown
Altitude
Unknown
Speed
Unknown
Apparent Right ascension
Unknown
Apparent Declination
Unknown
Sunlit
N/A
Visualization observer readout
Local Sidereal Time
01:40:52
Azimuth
Unknown
Elevation
Unknown
Doppler factor
Unknown
Orbital elements
Apogee altitude
360.755 km
Perigee altitude
359.276 km
Semi-major axis
6,738.152 km
Eccentricity
0.00011
Inclination
53.1597°
RAAN
280.4104°
Arg. of periapsis
98.3022°
True anomaly
261.79956°
Mean anomaly
261.812°
Eccentric anomaly
261.80578°
Mean motion
3.92403 °/min
Orbital period
91.74 mins
BSTAR
0.000012499
Loading maneuver chart data...
Computing Atmospheric mass density...
Loading historical data...
Loading historical data...
Loading historical data...
Loading historical data...
Loading historical data...
Loading historical data...
Loading historical data...

Documentation

Showing up to 5 results
|